Location: Appeville
(49.3218°N, 1.3427°W)
Time: 19:24:40
(UTC+00:00)

METEOR-M - Pass Details

Date: 08 December 2019
Orbit: 817 x 819 km, 98.4° (Epoch: 27 January)

Event Time Altitude Azimuth Distance (km) Brightness Sun altitude
Rises 06:22:03 0° 9° (N) 3,361 7.2 -13.1°
Reaches altitude 10° 06:24:29 10° 4° (N) 2,424 6.4 -12.8°
Maximum altitude 06:29:33 44° 293° (WNW) 1,121 4.4 -12.0°
Drops below altitude 10° 06:34:35 10° 223° (SW) 2,410 6.4 -11.2°
Sets 06:37:00 0° 217° (SW) 3,338 7.2 -10.9°
